Location: Les Salelles
(44.4192°N, 4.1044°E)
Time: 19:50:18
(UTC+00:00)

Cosmos 1602 Rocket - Pass Details

Date: 20 January 2021
Orbit: 604 x 632 km, 82.5° (Epoch: 04 March)

Event Time Altitude Azimuth Distance (km) Brightness Sun altitude
Rises 18:24:50 0° 175° (S) 2,847 7.0 -19.1°
Reaches altitude 10° 18:27:04 10° 171° (S) 1,951 6.1 -19.5°
Maximum altitude 18:31:16 54° 94° (E) 747 3.5 -20.2°
Enters shadow 18:31:36 52° 75° (ENE) 761 3.6 -20.3°
